Regional Weather Roundup
Issued by NWS

Home | Current Version | Previous Version | Text Only | Print | Product List | Glossary On
Versions: 1 2 3 4 5 6 7 8 9 10 11 12 13 14 15 16 17 18 19 20 21 22 23 24 25 26 27 28 29 30 31 32 33 34 35 36 37 38 39 40 41 42 43 44 45 46 47 48 49 50
000
ASUS45 KBOU 240407
RWRCO

WEATHER ROUNDUP FOR COLORADO
NATIONAL WEATHER SERVICE DENVER/BOULDER CO
900 PM MST THU FEB 23 2017

NOTE: "FAIR" INDICATES FEW OR NO CLOUDS BELOW 12000 FEET WITH NO
SIGNIFICANT WEATHER AND/OR OBSTRUCTIONS TO VISIBILITY.

COZ001>005-013-030-031-240500-
...NORTHWEST COLORADO...

CITY           SKY/WX    TMP DP  RH WIND       PRES   REMARKS
CRAIG          CLOUDY    22  16  78 W9        29.74R WCI  12
HAYDEN         CLOUDY    21  16  79 CALM      29.73R
MEEKER         MOCLDY    23  19  85 SW3       29.74S
MOUNT WERNER   NOT AVBL
STEAMBOAT SPGS CLOUDY    19  18  95 CALM      29.72S
WALDEN         NOT AVBL
$$

COZ006>008-011-240500-
...WEST CENTRAL VALLEYS...

CITY           SKY/WX    TMP DP  RH WIND       PRES   REMARKS
GRAND JUNCTION FAIR      26  24  92 E3        29.79S
MONTROSE       FAIR      25   9  50 E5        29.80R WCI  19
EAGLE          CLEAR     19  12  73 E8        29.76R WCI   9
RIFLE          LGT SNOW  27  25  92 W5        29.77F FOG     WCI  22
DELTA          FAIR      34  11  38 W7        29.78R WCI  28
NUCLA          FAIR      27  10  50 E8        29.82R WCI  18
$$

COZ017>023-064>068-240500-
...SOUTHWEST COLORADO...

CITY           SKY/WX    TMP DP  RH WIND       PRES   REMARKS
DURANGO        FAIR      24   3  40 CALM      29.77S
CORTEZ         FAIR      23  13  65 NE3       29.80R
PAGOSA SPRINGS FAIR      16   5  62 CALM      29.76S
TELLURIDE      MOCLDY    13  11  89 CALM      29.75S
WOLF CREEK PAS FAIR       1  -6  71 SW9       29.70S WCI -14
$$

COZ009-010-012-014-032>034-037-058>063-240500-
...CENTRAL COLORADO...

CITY           SKY/WX    TMP DP  RH WIND       PRES   REMARKS
ASPEN          CLOUDY    16   9  74 SW6       29.70R WCI   7
BUENA VISTA    FAIR      21   2  44 W13       29.70S WCI   8
COPPER MTN     CLOUDY     5  -2  72 MISG      29.58S HAZE
BERTHOUD PASS  CLOUDY    -4 -13  65 MISG      29.54S
COTTONWOOD PAS CLOUDY    16   0  48 W6        29.66R WCI   7
GUNNISON       FAIR      18   7  62 N5        29.73S WCI  11
KREMMLING      CLOUDY    23  18  80 CALM      29.72R
LEADVILLE      FAIR       2  -3  80 NE7       29.63S WCI -11
MONARCH PASS   CLOUDY     3   0  85 W24G31    29.70R WCI -20
SALIDA         CLOUDY    24  11  57 W20G25    29.80R WCI  10
SUNLIGHT       NOT AVBL
WILKERSON PASS FAIR       5  -4  66 W8        29.63S WCI  -8
$$

COZ069>075-240500-
...SAN LUIS VALLEY/SANGRE DE CRISTO MOUNTAINS...

CITY           SKY/WX    TMP DP  RH WIND       PRES   REMARKS
ALAMOSA        FAIR      23   6  48 W8        29.73S WCI  14
LA VETA PASS   FAIR      14   1  57 SW15G26   29.65S WCI  -1
SAGUACHE       FAIR      18   9  68 N10       29.74R WCI   6
$$

COZ035-036-038>040-240500-
...NORTHERN COLORADO FRONT RANGE...

CITY           SKY/WX    TMP DP  RH WIND       PRES   REMARKS
DENVER INTL AP LGT SNOW  19  14  81 N12       29.84R WCI   7
DMNS CITY PARK   N/A     20  15  81 MISG      29.86R
AURORA         FLURRIES  18  16  91 N6        29.84R WCI  10
FRONT RANGE AP NOT AVBL
ERIE MUNI ARPT FLURRIES  21  17  86 N5        29.87R WCI  14
BOULDER MUN AP LGT SNOW  21  19  93 CALM      29.86S
CENTENNIAL     FLURRIES  17  13  84 N12       29.82R WCI   4
BROOMFIELD     LGT SNOW  19  18  93 N6        29.84R WCI  11
FORT COLLINS   FAIR      21  14  74 N14       29.87R WCI   8
LONGMONT       LGT SNOW  24  16  73 NW6       29.89R WCI  17
$$

COZ041-046-047-076>085-087-088-240500-
...PIKES PEAK/PALMER DIVIDE AND SOUTHERN FOOTHILLS...

CITY           SKY/WX    TMP DP  RH WIND       PRES   REMARKS
COLO. SPRINGS  FAIR      21  12  68 N28G36    29.73R WCI   3
A. F. ACADEMY  FLURRIES  18  12  79 N17G32    29.74R WCI   2
SCHRIEVER AFB  FAIR      18  11  75 N16G22    29.74R WCI   3
ELLICOTT       FAIR     N/A N/A N/A N25G36      N/A
FALCON         MOCLDY    17  13  85 N23G35    29.71R WCI  -1
FORT CARSON    FAIR      22  12  64 N21G26    29.72R WCI   6
LIMON          CLOUDY    18  15  88 NW28G35   29.78R WCI  -1
MONUMENT HILL  LGT SNOW  14  10  85 N13G20    29.77R WCI   0
TRINIDAD       FAIR      29   6  38 NW9       29.72R WCI  20
$$

COZ042>045-048>051-090-091-240500-
...NORTHEAST COLORADO...

CITY           SKY/WX    TMP DP  RH WIND       PRES   REMARKS
GREELEY ARPT   CLOUDY    21  16  81 N12       29.88R WCI   9
AKRON          CLOUDY    20  16  84 N15       29.82R WCI   6
BURLINGTON     CLOUDY    24  20  84 N21G28    29.77R WCI   9
WRAY           NOT AVBL
STERLING       CLOUDY    23  21  93 N14       29.84R WCI  11
HOLYOKE        LGT SNOW  25  21  86 N9        29.82R WCI  15
FORT MORGAN    CLOUDY    20  16  86 N9        29.85S WCI   9
$$

COZ086-089-092>099-240500-
...SOUTHEAST COLORADO...

CITY           SKY/WX    TMP DP  RH WIND       PRES   REMARKS
PUEBLO         FAIR      29  15  56 N22G31    29.76R WCI  15
LA JUNTA       FAIR      29  20  69 N17       29.80R WCI  17
LAMAR          MOCLDY    29  20  69 N9        29.77R WCI  20
SPRINGFIELD      N/A     30  24  78 N23       29.73R WCI  17
$$



USA.gov is the U.S. government's official web portal to all federal, state and local government web resources and services.